[[{"header":{"parameterUnit":"m.s-1","parameterCategory":2,"la1":30.2991,"la2":30.254,"lo1":-89.0895,"lo2":-89.0444,"dy":0.0017,"dx":0.0017,"nx":28,"ny":28,"refTime":"2025-08-24T21:00:00:Z","depth":"0","parameterNumber":2,"parameterNumberName":"U-component_of_CURRENTS"},"data":[0,0,0,0,0,0,0,0,0,0,0,0,0,0,0,0,0,0,0,0,0,0,0,0,0,0,0,0,0,0,0,0,0,0,0,0,0,0,0,0,0,0,0,0,0,0,0,0,0,0,0,0,0,0,0,0,0,0,0.1149,0.115,0,0.1187,0.1188,0.1188,0.1188,0.1188,0.1187,0.1187,0.1152,0.1151,0.1151,0,0,0,0,0,0,0,0,0,0,0,0,0,0.1124,0.1124,0.1149,0.115,0.115,0.1187,0.1188,0.1188,0.1189,0.1188,0.1187,0.1186,0.1152,0.1152,0.1151,0,0,0,0,0,0,0,0,0,0,0,0,0,0.1147,0.1124,0.1149,0.1154,0.1155,0.1187,0.1188,0.1189,0.1189,0.1188,0.1187,0.1186,0.1152,0.1152,0.1151,0.1165,0,0,0.1149,0.1149,0,0,0,0,0,0,0,0,0.1145,0.1148,0.1153,0.1154,0.1154,0.1181,0.1166,0.1177,0.1189,0.1177,0.1187,0.1186,0.1155,0.1154,0.1166,0.1163,0.1161,0.1149,0.1149,0.1148,0.1148,0,0,0,0,0,0,0,0.1144,0.1146,0.1165,0.1153,0.1154,0.117,0.1172,0.1169,0.1169,0.1178,0.1177,0.1181,0.1155,0.1166,0.1164,0.1161,0.1149,0.1149,0.1148,0.1148,0.113,0.1129,0,0,0,0,0,0,0.1136,0.1145,0.1164,0.1166,0.1147,0.1171,0.1173,0.1174,0.1171,0.117,0.1181,0.1181,0.1168,0.1165,0.1163,0.1159,0.1148,0.1148,0.1148,0.113,0.113,0.1129,0,0,0,0,0,0,0.1135,0.1137,0.1162,0.1156,0.116,0.1172,0.1174,0.1176,0.1185,0.1175,0.1172,0.1188,0.1167,0.1164,0.1152,0.1158,0.1148,0.1147,0.113,0.113,0.1129,0.1164,0,0,0,0,0,0,0.1134,0.1136,0.1137,0.1155,0.116,0.1184,0.1174,0.1177,0.1188,0.1187,0.118,0.1176,0.1166,0.1153,0.1151,0.1157,0.1147,0.113,0.113,0.113,0.1163,0.1165,0.1166,0,0,0,0,0,0.1133,0.1139,0.1137,0.1139,0.1159,0.1184,0.1189,0.1195,0.1189,0.12,0.1184,0.1176,0.115,0.1153,0.1151,0.1157,0.113,0.113,0.113,0.1162,0.1164,0.1166,0,0,0,0,0,0,0.1128,0.114,0.1138,0.1146,0.1164,0.1184,0.1195,0.1198,0.1199,0.1194,0.1178,0.1173,0.1165,0.1154,0.1157,0.1148,0.1138,0.1137,0.1163,0.1165,0.1167,0.1175,0.1146,0,0,0,0,0,0.1128,0.1134,0.1149,0.1157,0.1166,0.1181,0.1192,0.1198,0.1201,0.1201,0.1188,0.1174,0.1165,0.1159,0.1148,0.1148,0.1162,0.1148,0.115,0.1151,0.1155,0.118,0.1185,0.1128,0.1128,0.1128,0,0,0.1128,0.1135,0.1139,0.1156,0.117,0.118,0.1186,0.1207,0.1208,0.1196,0.1186,0.1181,0.1165,0.1161,0.1157,0.1152,0.1179,0.1151,0.1153,0.1155,0.1181,0.1186,0.1192,0.1128,0.1128,0.1128,0,0,0.1139,0.114,0.1152,0.1161,0.1182,0.1188,0.1193,0.121,0.1212,0.121,0.1198,0.1198,0.1178,0.1175,0.117,0.1176,0.1187,0.1167,0.1186,0.121,0.1216,0.1221,0.1267,0.1276,0.1169,0.1169,0.1169,0,0.114,0.1149,0.1161,0.1171,0.1175,0.1188,0.1199,0.1205,0.1211,0.1217,0.1205,0.1199,0.1186,0.1193,0.1191,0.1182,0.1204,0.1182,0.1215,0.122,0.1225,0.1271,0.128,0.1171,0.1171,0.117,0.117,0,0.1162,0.116,0.1169,0.1176,0.1185,0.1199,0.1204,0.1212,0.1211,0.1217,0.1227,0.1219,0.1221,0.1214,0.1202,0.1226,0.1236,0.1217,0.1215,0.1233,0.128,0.1289,0.1173,0.1172,0.1172,0.1172,0,0,0.1192,0.1184,0.1186,0.1182,0.1187,0.1199,0.1201,0.1218,0.1234,0.1232,0.1256,0.1241,0.1254,0.1248,0.1244,0.126,0.1314,0.1252,0.1253,0.1309,0.1391,0.1472,0.149,0.1303,0.1304,0.1305,0.1419,0,0.1207,0.1209,0.1206,0.1205,0.1205,0.1208,0.1213,0.1227,0.124,0.1264,0.1272,0.1289,0.1262,0.1279,0.1289,0.1311,0.1335,0.1286,0.1355,0.1358,0.1437,0.1502,0.1538,0.1649,0.1428,0.143,0.1431,0,0.1233,0.1227,0.1223,0.1214,0.1219,0.1218,0.1241,0.125,0.1284,0.1299,0.1323,0.1336,0.1368,0.1339,0.1393,0.1365,0.1379,0.1391,0.1395,0.1465,0.1456,0.159,0.1673,0.1578,0.1445,0.1443,0.1442,0,0.1246,0.124,0.1232,0.1226,0.1222,0.1228,0.1236,0.1263,0.129,0.1333,0.137,0.1398,0.1437,0.1449,0.1484,0.1442,0.1556,0.15,0.1588,0.1594,0.1636,0.1644,0.1644,0.1535,0.1535,0.1535,0.1534,0,0.1256,0.1252,0.1235,0.1228,0.1239,0.1237,0.1266,0.1283,0.1329,0.1372,0.1394,0.1451,0.1465,0.1531,0.1529,0.1622,0.16,0.162,0.1637,0.1651,0.1659,0.1585,0.1512,0.1539,0.1538,0.1537,0.1536,0,0.1267,0.1251,0.1246,0.1239,0.1239,0.1251,0.128,0.1307,0.1352,0.1415,0.1438,0.1517,0.1618,0.1656,0.1711,0.171,0.1729,0.1792,0.1828,0.1848,0.1828,0.1757,0.1749,0.1688,0.1909,0.1912,0.1914,0,0.1263,0.1258,0.1254,0.1252,0.1246,0.1262,0.1275,0.1312,0.1346,0.1459,0.1495,0.1626,0.172,0.1873,0.1924,0.1996,0.185,0.204,0.1955,0.1865,0.1797,0.1679,0.1616,0.2026,0.2029,0.2032,0.2034,0,0.1256,0.1259,0.1255,0.1255,0.1257,0.1271,0.1294,0.1327,0.1385,0.146,0.1577,0.1674,0.187,0.1988,0.2111,0.2146,0.1956,0.2096,0.1982,0.189,0.1781,0.1718,0.1916,0.2057,0.2054,0.2053,0.2052,0.2051,0.1245,0.125,0.124,0.1241,0.125,0.1258,0.126,0.1314,0.138,0.1474,0.1599,0.1738,0.1953,0.2159,0.2193,0.2249,0.2124,0.2165,0.2092,0.1984,0.1906,0.2179,0.2346,0.2345,0.2345,0.2344,0.2344,0,0.1195,0.1205,0.1218,0.1207,0.1204,0.1219,0.1248,0.1253,0.1314,0.1466,0.1579,0.1821,0.2003,0.215,0.2296,0.2225,0.2115,0.2138,0.1942,0.1879,0.2127,0.2112,0.2261,0.2261,0.2261,0.2261,0.2261,0.2261,0.1158,0.1148,0.1161,0.1137,0.1142,0.1113,0.1116,0.1158,0.1247,0.1398,0.1538,0.1683,0.1917,0.2125,0.2157,0.2127,0.1878,0.1871,0.1733,0.1869,0.1862,0.1856,0.1824,0.191,0.191,0.1467,0.1463,0.1461]},{"header":{"parameterUnit":"m.s-1","parameterCategory":2,"la1":30.2991,"la2":30.254,"lo1":-89.0895,"lo2":-89.0444,"dy":0.0017,"dx":0.0017,"nx":28,"ny":28,"refTime":"2025-08-24T21:00:00:Z","depth":"0","parameterNumber":3,"parameterNumberName":"V-component_of_CURRENTS"},"data":[0,0,0,0,0,0,0,0,0,0,0,0,0,0,0,0,0,0,0,0,0,0,0,0,0,0,0,0,0,0,0,0,0,0,0,0,0,0,0,0,0,0,0,0,0,0,0,0,0,0,0,0,0,0,0,0,0,0,-0.0106,-0.0106,0,-0.017,-0.0171,-0.0172,-0.0209,-0.0209,-0.0209,-0.0209,-0.0288,-0.029,-0.0292,0,0,0,0,0,0,0,0,0,0,0,0,0,-0.007,-0.0071,-0.0106,-0.0106,-0.0107,-0.017,-0.0171,-0.0173,-0.0209,-0.0209,-0.0209,-0.0209,-0.0287,-0.029,-0.0292,0,0,0,0,0,0,0,0,0,0,0,0,0,-0.0107,-0.0071,-0.0106,-0.0131,-0.0134,-0.017,-0.0171,-0.0173,-0.0209,-0.0209,-0.0209,-0.0208,-0.0286,-0.0289,-0.0293,-0.0316,0,0,-0.0303,-0.0304,0,0,0,0,0,0,0,0,-0.0105,-0.0109,-0.0127,-0.0129,-0.0132,-0.0179,-0.0188,-0.0221,-0.0209,-0.0183,-0.0209,-0.0208,-0.0251,-0.0257,-0.0273,-0.0319,-0.0323,-0.0303,-0.0305,-0.0306,-0.0307,0,0,0,0,0,0,0,-0.0103,-0.0107,-0.0134,-0.0127,-0.0131,-0.0158,-0.0163,-0.0195,-0.0219,-0.0185,-0.0187,-0.0191,-0.0253,-0.027,-0.0275,-0.0324,-0.0303,-0.0306,-0.0308,-0.0309,-0.035,-0.0349,0,0,0,0,0,0,-0.0087,-0.0104,-0.0132,-0.0136,-0.0116,-0.0159,-0.0164,-0.0166,-0.0219,-0.0226,-0.0191,-0.0192,-0.0264,-0.0271,-0.0278,-0.0272,-0.0306,-0.0309,-0.0311,-0.0351,-0.035,-0.0349,0,0,0,0,0,0,-0.0086,-0.0089,-0.0129,-0.012,-0.0126,-0.0159,-0.0161,-0.0168,-0.0182,-0.0222,-0.023,-0.0198,-0.0264,-0.0274,-0.03,-0.0276,-0.0311,-0.0314,-0.0352,-0.0351,-0.035,-0.0282,0,0,0,0,0,0,-0.0085,-0.0088,-0.0087,-0.0118,-0.0126,-0.0147,-0.0161,-0.0169,-0.0184,-0.0186,-0.0231,-0.0239,-0.0265,-0.0295,-0.0303,-0.0281,-0.0316,-0.0353,-0.0352,-0.035,-0.0286,-0.0279,-0.0273,0,0,0,0,0,-0.0083,-0.0079,-0.0086,-0.009,-0.0122,-0.0147,-0.0154,-0.0178,-0.0184,-0.0191,-0.0217,-0.0237,-0.0289,-0.0297,-0.0307,-0.0286,-0.0354,-0.0352,-0.035,-0.0289,-0.028,-0.0273,0,0,0,0,0,0,-0.0065,-0.0083,-0.0092,-0.0094,-0.0116,-0.0152,-0.0159,-0.0175,-0.0202,-0.0203,-0.0239,-0.0249,-0.0259,-0.0285,-0.0292,-0.0291,-0.032,-0.032,-0.0269,-0.0262,-0.0256,-0.0247,-0.0319,0,0,0,0,0,-0.0058,-0.006,-0.0085,-0.0088,-0.0095,-0.0126,-0.0139,-0.0156,-0.0182,-0.0194,-0.0221,-0.0244,-0.0259,-0.0271,-0.0294,-0.0304,-0.0336,-0.0292,-0.0286,-0.028,-0.0278,-0.0319,-0.0316,-0.0343,-0.0343,-0.0343,0,0,-0.0052,-0.0062,-0.0064,-0.0084,-0.0102,-0.0101,-0.0134,-0.015,-0.0143,-0.0198,-0.02,-0.023,-0.0258,-0.0263,-0.0268,-0.0281,-0.0286,-0.0278,-0.0273,-0.0274,-0.0317,-0.0314,-0.0312,-0.0341,-0.0342,-0.0342,0,0,-0.0037,-0.0048,-0.0043,-0.0053,-0.0074,-0.0088,-0.0088,-0.0119,-0.0128,-0.014,-0.0166,-0.0185,-0.0214,-0.0227,-0.0236,-0.0212,-0.0253,-0.0211,-0.0172,-0.021,-0.0209,-0.0208,-0.0231,-0.0233,-0.0205,-0.0205,-0.0205,0,-0.0027,-0.0021,-0.0047,-0.0041,-0.0036,-0.0074,-0.006,-0.0074,-0.0108,-0.011,-0.0129,-0.0166,-0.0193,-0.0191,-0.0178,-0.0197,-0.0225,-0.0198,-0.0203,-0.0203,-0.0203,-0.0227,-0.023,-0.0201,-0.0202,-0.0202,-0.0202,0,-0.001,0.0002,0.0005,0.001,0.0008,0.001,-0.0002,-0.0008,-0.0021,-0.0038,-0.0049,-0.0095,-0.0116,-0.012,-0.0142,-0.0145,-0.0165,-0.0193,-0.0223,-0.0197,-0.0223,-0.0227,-0.0196,-0.0198,-0.0199,-0.02,0,0,-0.0002,0.0016,0.0019,0.0042,0.0039,0.0042,0.0059,0.006,0.0075,0.0036,0.0045,0.0013,-0.0023,-0.0036,-0.007,-0.0102,-0.0122,-0.0142,-0.0146,-0.0165,-0.02,-0.0197,-0.0202,-0.0157,-0.0157,-0.0158,-0.0213,0,0.0022,0.006,0.0059,0.0105,0.0128,0.0118,0.0142,0.0139,0.0125,0.0121,0.0073,0.0063,0.0015,0.0004,-0.0036,-0.0104,-0.0133,-0.0104,-0.0223,-0.0226,-0.0228,-0.0207,-0.0176,-0.0221,-0.0217,-0.0218,-0.0219,0,0.0039,0.0068,0.0118,0.0171,0.018,0.0201,0.0234,0.0248,0.0233,0.0218,0.0186,0.0143,0.0101,0.005,-0.0056,-0.0038,-0.011,-0.0168,-0.0172,-0.0198,-0.0231,-0.025,-0.023,-0.0341,-0.0226,-0.0225,-0.0225,0,0.0064,0.0113,0.0162,0.0177,0.0222,0.0246,0.0269,0.0275,0.0298,0.0274,0.0275,0.0207,0.0177,0.0072,-0.0041,-0.0054,-0.0163,-0.0198,-0.0261,-0.0261,-0.0272,-0.0272,-0.0375,-0.0274,-0.0274,-0.0274,-0.0274,0,0.0095,0.0135,0.0179,0.0206,0.0271,0.0287,0.0342,0.0347,0.0362,0.0391,0.0324,0.0324,0.0177,0.01,-0.0017,-0.0144,-0.0148,-0.0249,-0.0276,-0.0245,-0.0242,-0.0371,-0.0437,-0.0276,-0.0276,-0.0275,-0.0275,0,0.0118,0.0142,0.0204,0.0262,0.0284,0.033,0.0398,0.0435,0.0437,0.0469,0.0465,0.0409,0.0311,0.017,0.0008,-0.01,-0.0285,-0.0272,-0.0214,-0.0233,-0.0397,-0.0459,-0.0584,-0.0627,-0.0352,-0.0353,-0.0353,0,0.0136,0.0169,0.0243,0.0283,0.0311,0.0379,0.0429,0.0464,0.0506,0.0524,0.0544,0.0474,0.0439,0.0217,0.0019,-0.0172,-0.0288,-0.0279,-0.0301,-0.0396,-0.0486,-0.0524,-0.0554,-0.0286,-0.0286,-0.0285,-0.0285,0,0.0176,0.0196,0.0245,0.0323,0.0383,0.0458,0.0529,0.058,0.062,0.0649,0.0676,0.0656,0.0466,0.0305,0.0053,-0.0096,-0.0341,-0.0279,-0.0402,-0.0459,-0.0484,-0.054,-0.0253,-0.0283,-0.0283,-0.0283,-0.0283,-0.0283,0.0203,0.0241,0.0298,0.0372,0.044,0.0526,0.0592,0.0667,0.0747,0.0809,0.0787,0.0793,0.0565,0.0237,0.0025,-0.0325,-0.0336,-0.0429,-0.05,-0.0532,-0.0565,-0.0259,-0.0306,-0.0307,-0.0307,-0.0307,-0.0307,0,0.024,0.0279,0.0347,0.0434,0.0507,0.054,0.0652,0.0719,0.0814,0.0889,0.0924,0.0846,0.0562,0.0239,-0.022,-0.0485,-0.0582,-0.0638,-0.0695,-0.0719,-0.0468,-0.0457,-0.0508,-0.0508,-0.0508,-0.0508,-0.0507,-0.0507,0.0262,0.0323,0.0356,0.0472,0.0534,0.0637,0.0704,0.0799,0.0879,0.0973,0.1008,0.1014,0.0768,-0.0004,-0.0569,-0.0713,-0.09,-0.093,-0.1034,-0.0877,-0.0863,-0.085,-0.0855,-0.0988,-0.0989,-0.123,-0.1232,-0.1234]}],[{"header":{"parameterUnit":"m.s-1","parameterCategory":2,"la1":30.2991,"la2":30.254,"lo1":-89.0895,"lo2":-89.0444,"dy":0.0017,"dx":0.0017,"nx":28,"ny":28,"refTime":"2025-08-24T21:00:00:Z","depth":"2","parameterNumber":2,"parameterNumberName":"U-component_of_CURRENTS"},"data":[0,0,0,0,0,0,0,0,0,0,0,0,0,0,0,0,0,0,0,0,0,0,0,0,0,0,0,0,0,0,0,0,0,0,0,0,0,0,0,0,0,0,0,0,0,0,0,0,0,0,0,0,0,0,0,0,0,0,0.1196,0.1197,0,0.1261,0.1262,0.1263,0.1267,0.1266,0.1265,0.1264,0.1287,0.1288,0.1289,0,0,0,0,0,0,0,0,0,0,0,0,0,0.1162,0.1162,0.1196,0.1197,0.1198,0.1261,0.1262,0.1263,0.1267,0.1266,0.1264,0.1263,0.1286,0.1288,0.129,0,0,0,0,0,0,0,0,0,0,0,0,0,0.1199,0.1162,0.1196,0.1205,0.1206,0.1261,0.1262,0.1263,0.1267,0.1266,0.1264,0.1263,0.1285,0.1288,0.129,0.1333,0,0,0.1297,0.1298,0,0,0,0,0,0,0,0,0.1197,0.12,0.1203,0.1205,0.1206,0.1252,0.1258,0.1284,0.1267,0.1247,0.1264,0.1262,0.1271,0.1274,0.1294,0.1334,0.1335,0.1297,0.1298,0.1299,0.13,0,0,0,0,0,0,0,0.1194,0.1198,0.1224,0.1204,0.1206,0.1235,0.1238,0.1264,0.1267,0.1248,0.1248,0.1252,0.1271,0.1291,0.1294,0.1335,0.1297,0.1299,0.13,0.1301,0.1407,0.1408,0,0,0,0,0,0,0.1178,0.1195,0.1222,0.1226,0.1195,0.1236,0.124,0.1241,0.1268,0.127,0.1253,0.1252,0.1288,0.1291,0.1295,0.1343,0.1299,0.1301,0.1303,0.1405,0.1407,0.1409,0,0,0,0,0,0,0.1177,0.118,0.122,0.121,0.1217,0.1238,0.1239,0.1243,0.126,0.1271,0.1273,0.1265,0.1287,0.1291,0.1324,0.1344,0.1302,0.1304,0.1404,0.1406,0.1408,0.1442,0,0,0,0,0,0,0.1176,0.1179,0.1181,0.1209,0.1217,0.1259,0.124,0.1245,0.1263,0.1262,0.1282,0.1283,0.1286,0.1321,0.1326,0.1346,0.1306,0.1402,0.1405,0.1407,0.1439,0.1445,0.145,0,0,0,0,0,0.1175,0.1183,0.118,0.1184,0.1216,0.126,0.1268,0.1279,0.1265,0.1286,0.1296,0.1282,0.1341,0.1324,0.133,0.1351,0.14,0.1404,0.1407,0.1437,0.1444,0.145,0,0,0,0,0,0,0.117,0.1185,0.1182,0.1195,0.1226,0.1259,0.1279,0.1283,0.131,0.1306,0.1307,0.131,0.1346,0.1349,0.1329,0.139,0.1367,0.1372,0.1388,0.1395,0.14,0.1422,0.1308,0,0,0,0,0,0.1169,0.1178,0.1202,0.1215,0.123,0.1255,0.1273,0.1284,0.1308,0.1318,0.1322,0.1337,0.1368,0.1379,0.1403,0.144,0.1449,0.1456,0.1462,0.1466,0.149,0.1533,0.1545,0.1419,0.1419,0.1419,0,0,0.1171,0.118,0.1186,0.1215,0.1239,0.1274,0.1263,0.1299,0.1327,0.1317,0.1347,0.1359,0.1384,0.1425,0.144,0.1426,0.1501,0.147,0.1474,0.1496,0.1538,0.155,0.1561,0.1421,0.1421,0.1421,0,0,0.1191,0.119,0.121,0.1234,0.1269,0.1293,0.1301,0.1332,0.1347,0.1382,0.1384,0.1415,0.1439,0.1473,0.1493,0.1548,0.1532,0.1541,0.1586,0.1627,0.1638,0.1648,0.1648,0.1658,0.154,0.154,0.1541,0,0.1195,0.1213,0.1227,0.1255,0.1277,0.1299,0.1335,0.1365,0.1398,0.1421,0.1392,0.1459,0.1471,0.1548,0.1565,0.1563,0.1566,0.1554,0.1635,0.1645,0.1654,0.1652,0.1663,0.1543,0.1542,0.1542,0.1542,0,0.1239,0.1246,0.1263,0.13,0.1334,0.1368,0.1407,0.1437,0.1442,0.1465,0.1521,0.1542,0.1583,0.1588,0.1594,0.1672,0.1644,0.1636,0.1615,0.1669,0.1663,0.1673,0.1545,0.1545,0.1544,0.1544,0,0,0.1272,0.1288,0.1294,0.1305,0.1357,0.1391,0.1447,0.1511,0.155,0.1569,0.1618,0.1673,0.1675,0.17,0.1708,0.1743,0.1799,0.1718,0.1719,0.1715,0.186,0.1869,0.188,0.1799,0.1802,0.1804,0.1819,0,0.1305,0.1335,0.1351,0.1397,0.142,0.1456,0.1505,0.1564,0.1602,0.165,0.1688,0.1731,0.172,0.1735,0.1778,0.1795,0.1831,0.1793,0.1814,0.1815,0.1814,0.1896,0.1671,0.167,0.1829,0.1831,0.1832,0,0.1356,0.1363,0.1393,0.1427,0.1446,0.1475,0.1562,0.1612,0.1695,0.1724,0.1782,0.1799,0.1868,0.1838,0.191,0.1881,0.1888,0.1892,0.1892,0.1904,0.1845,0.165,0.1682,0.1848,0.1847,0.1846,0.1845,0,0.1373,0.1402,0.1417,0.1428,0.1474,0.1499,0.1537,0.1623,0.1681,0.1765,0.1801,0.1878,0.1906,0.1942,0.1967,0.1933,0.2034,0.198,0.1997,0.1994,0.1814,0.1794,0.2052,0.2052,0.2052,0.2052,0.2052,0,0.14,0.1417,0.141,0.1418,0.1458,0.1491,0.1556,0.1616,0.1701,0.1773,0.1827,0.1892,0.1936,0.1995,0.2,0.2046,0.2064,0.2036,0.2024,0.1818,0.1798,0.1964,0.1954,0.2052,0.2052,0.2052,0.2052,0,0.1412,0.1406,0.1428,0.145,0.1458,0.1486,0.1553,0.161,0.1681,0.1775,0.18,0.1911,0.1992,0.2043,0.2105,0.2088,0.2124,0.2138,0.1885,0.1846,0.2031,0.2022,0.2129,0.213,0.2131,0.2131,0.2132,0,0.141,0.1414,0.1438,0.1451,0.1451,0.1485,0.1521,0.1597,0.1658,0.1788,0.1834,0.1945,0.2004,0.2105,0.2088,0.2102,0.2193,0.1953,0.1874,0.2075,0.2051,0.204,0.2031,0.1613,0.161,0.1607,0.1604,0,0.1407,0.1416,0.1427,0.1449,0.1469,0.1509,0.155,0.159,0.1686,0.175,0.1849,0.1893,0.1967,0.1901,0.1953,0.1933,0.1928,0.1896,0.2179,0.166,0.1599,0.1573,0.1578,0.1577,0.158,0.1582,0.1583,0.1585,0.1398,0.1407,0.1417,0.1443,0.1475,0.1504,0.1519,0.1567,0.1626,0.1654,0.1745,0.1727,0.1739,0.1689,0.1676,0.1679,0.1794,0.1719,0.1723,0.1731,0.1701,0.1649,0.1626,0.1629,0.1631,0.1634,0.1636,0,0.1369,0.1385,0.1411,0.1431,0.1455,0.1483,0.1527,0.1516,0.1539,0.1531,0.1533,0.1376,0.132,0.1402,0.1315,0.1329,0.1244,0.1337,0.1196,0.1223,0.1248,0.1188,0.0979,0.0978,0.0977,0.0975,0,0,0.135,0.1352,0.1366,0.1382,0.141,0.1417,0.1427,0.1408,0.1392,0.1278,0.1212,0.1177,0.1292,0.1087,0.1076,0.1031,0.1116,0.099,0.1505,0.136,0.1383,0.145,0.1389,0,0,0,0,0]},{"header":{"parameterUnit":"m.s-1","parameterCategory":2,"la1":30.2991,"la2":30.254,"lo1":-89.0895,"lo2":-89.0444,"dy":0.0017,"dx":0.0017,"nx":28,"ny":28,"refTime":"2025-08-24T21:00:00:Z","depth":"2","parameterNumber":3,"parameterNumberName":"V-component_of_CURRENTS"},"data":[0,0,0,0,0,0,0,0,0,0,0,0,0,0,0,0,0,0,0,0,0,0,0,0,0,0,0,0,0,0,0,0,0,0,0,0,0,0,0,0,0,0,0,0,0,0,0,0,0,0,0,0,0,0,0,0,0,0,-0.0047,-0.0048,0,-0.0111,-0.0112,-0.0113,-0.0146,-0.0146,-0.0146,-0.0146,-0.0206,-0.0208,-0.0209,0,0,0,0,0,0,0,0,0,0,0,0,0,-0.0015,-0.0015,-0.0047,-0.0048,-0.0048,-0.011,-0.0112,-0.0113,-0.0146,-0.0146,-0.0146,-0.0146,-0.0205,-0.0207,-0.0209,0,0,0,0,0,0,0,0,0,0,0,0,0,-0.0051,-0.0015,-0.0047,-0.007,-0.0073,-0.011,-0.0112,-0.0113,-0.0146,-0.0146,-0.0146,-0.0146,-0.0205,-0.0207,-0.021,-0.0232,0,0,-0.0218,-0.0219,0,0,0,0,0,0,0,0,-0.0049,-0.0053,-0.0067,-0.0069,-0.0072,-0.0118,-0.0122,-0.0152,-0.0146,-0.0121,-0.0146,-0.0145,-0.0174,-0.018,-0.0196,-0.0235,-0.0237,-0.0218,-0.022,-0.0221,-0.0222,0,0,0,0,0,0,0,-0.0046,-0.005,-0.0075,-0.0067,-0.007,-0.0098,-0.0103,-0.0128,-0.0151,-0.0124,-0.0126,-0.0128,-0.0176,-0.0194,-0.0198,-0.0238,-0.0218,-0.022,-0.0222,-0.0223,-0.0236,-0.0235,0,0,0,0,0,0,-0.003,-0.0048,-0.0073,-0.0077,-0.0056,-0.0098,-0.0104,-0.0106,-0.0151,-0.0157,-0.0128,-0.013,-0.0189,-0.0195,-0.02,-0.0184,-0.0221,-0.0223,-0.0225,-0.0237,-0.0236,-0.0235,0,0,0,0,0,0,-0.0029,-0.0032,-0.0071,-0.0062,-0.0068,-0.0098,-0.0101,-0.0107,-0.0121,-0.0154,-0.016,-0.0135,-0.0189,-0.0196,-0.0213,-0.0188,-0.0225,-0.0227,-0.0239,-0.0237,-0.0235,-0.018,0,0,0,0,0,0,-0.0028,-0.0031,-0.003,-0.006,-0.0068,-0.0089,-0.0101,-0.0108,-0.0122,-0.0124,-0.0162,-0.0168,-0.0189,-0.0209,-0.0216,-0.0192,-0.0229,-0.024,-0.0238,-0.0236,-0.0184,-0.0177,-0.0171,0,0,0,0,0,-0.0027,-0.0023,-0.003,-0.0033,-0.0064,-0.0089,-0.0096,-0.0119,-0.0123,-0.0131,-0.0148,-0.0166,-0.0198,-0.0211,-0.0219,-0.0196,-0.0242,-0.0239,-0.0236,-0.0187,-0.0178,-0.0171,0,0,0,0,0,0,-0.001,-0.0027,-0.0035,-0.0037,-0.0059,-0.0094,-0.0101,-0.0116,-0.0139,-0.0138,-0.0167,-0.0174,-0.0174,-0.0194,-0.0207,-0.0189,-0.0217,-0.0215,-0.0176,-0.0168,-0.0162,-0.0144,-0.0231,0,0,0,0,0,-0.0004,-0.0006,-0.003,-0.0033,-0.004,-0.007,-0.0083,-0.0099,-0.0121,-0.0131,-0.0154,-0.0167,-0.017,-0.0177,-0.0192,-0.0195,-0.0216,-0.0178,-0.0172,-0.0166,-0.0155,-0.0162,-0.0156,-0.0225,-0.0225,-0.0225,0,0,0.0001,-0.0008,-0.0009,-0.0029,-0.0047,-0.0048,-0.0078,-0.0094,-0.0087,-0.0133,-0.0133,-0.0153,-0.0167,-0.0163,-0.0163,-0.0176,-0.016,-0.0163,-0.0158,-0.0149,-0.0159,-0.0152,-0.0146,-0.0223,-0.0224,-0.0224,0,0,0.0014,0.0004,0.0008,-0.0002,-0.0023,-0.0037,-0.0038,-0.0069,-0.0074,-0.0084,-0.0099,-0.0104,-0.0127,-0.0123,-0.0123,-0.0091,-0.0128,-0.0092,-0.0045,-0.0053,-0.0047,-0.0043,-0.0076,-0.0075,-0.0086,-0.0086,-0.0085,0,0.0022,0.0027,0.0003,0.0008,0.0011,-0.0024,-0.0014,-0.0024,-0.0056,-0.005,-0.0073,-0.0079,-0.01,-0.0071,-0.0057,-0.0076,-0.0098,-0.0076,-0.0045,-0.0041,-0.0037,-0.0072,-0.0071,-0.0083,-0.0083,-0.0083,-0.0084,0,0.0036,0.0046,0.0049,0.0052,0.0048,0.0048,0.0039,0.0036,0.0025,0.0015,0.0025,-0.0005,-0.0005,-0.0006,-0.0025,0.0005,-0.0027,-0.004,-0.0067,-0.0027,-0.0066,-0.0067,-0.0078,-0.0079,-0.008,-0.0081,0,0,0.0042,0.0058,0.006,0.008,0.0075,0.0075,0.0097,0.0105,0.0129,0.01,0.0128,0.0118,0.0095,0.0095,0.0073,0.0068,0.0064,0.0029,0.0027,-0.0008,0.0026,0.0008,0.0004,0.0052,0.0053,0.0053,-0.0018,0,0.0062,0.0094,0.0094,0.0132,0.0152,0.0145,0.0171,0.0176,0.0174,0.0188,0.0171,0.0179,0.0139,0.0137,0.0129,0.0081,0.0068,0.0083,-0.0003,-0.0006,-0.003,0.0006,-0.002,-0.0084,-0.0019,-0.0019,-0.0019,0,0.0078,0.0102,0.0144,0.019,0.0198,0.0216,0.0256,0.0271,0.0286,0.0285,0.0289,0.0265,0.0259,0.0216,0.0158,0.0166,0.0106,0.0063,0.0059,0.0026,-0.0024,-0.011,-0.0088,-0.002,-0.002,-0.002,-0.002,0,0.0099,0.0142,0.0183,0.0196,0.0234,0.0259,0.0277,0.03,0.0326,0.0344,0.0356,0.0341,0.033,0.0267,0.0172,0.0163,0.0096,0.0069,-0.0004,-0.0008,-0.0052,-0.006,0.0036,0.0036,0.0036,0.0036,0.0037,0,0.0127,0.0161,0.0199,0.0221,0.0277,0.029,0.0343,0.0361,0.0393,0.0427,0.0404,0.0425,0.0343,0.0291,0.0198,0.0096,0.0112,0.0014,-0.0016,-0.0035,-0.0041,0.0001,-0.0002,0.0034,0.0034,0.0035,0.0035,0,0.0143,0.0167,0.0216,0.0266,0.0288,0.0324,0.0381,0.0419,0.044,0.0484,0.0492,0.0485,0.0425,0.0328,0.0223,0.0131,0.0033,-0.0008,-0.0037,-0.0067,-0.0079,-0.0078,-0.0098,-0.0099,-0.01,-0.0101,-0.0101,0,0.016,0.0185,0.0243,0.0277,0.0302,0.0357,0.0399,0.0439,0.0479,0.052,0.0545,0.0517,0.0492,0.0331,0.0175,0.0013,0.0027,-0.0106,-0.0115,-0.006,-0.0087,-0.0085,-0.0084,-0.017,-0.0171,-0.0172,-0.0173,0,0.0192,0.0202,0.0239,0.0305,0.0356,0.0413,0.0473,0.0514,0.0558,0.0596,0.0638,0.062,0.0471,0.0308,0.0097,-0.0009,-0.0082,-0.0129,-0.0059,-0.012,-0.013,-0.0156,-0.0151,-0.0181,-0.018,-0.0179,-0.0179,-0.0178,0.0214,0.0241,0.0286,0.0348,0.0401,0.0467,0.0519,0.0578,0.0646,0.0677,0.066,0.0616,0.0448,0.0165,0.0003,-0.0149,-0.0137,-0.0207,-0.0204,-0.0199,-0.0183,-0.0192,-0.0254,-0.0253,-0.0253,-0.0253,-0.0252,0,0.0262,0.0289,0.0336,0.041,0.0462,0.0491,0.0574,0.0615,0.0693,0.068,0.0674,0.0486,0.0293,0.0145,-0.0112,-0.0271,-0.028,-0.0293,-0.0279,-0.0272,-0.0265,-0.025,-0.034,-0.034,-0.034,-0.0341,0,0,0.0296,0.0346,0.0365,0.0459,0.0506,0.0586,0.0635,0.0683,0.0695,0.0671,0.0624,0.0498,0.0323,0.0122,-0.0082,-0.0205,-0.0198,-0.0227,-0.015,-0.0106,-0.0097,-0.0218,-0.0188,0,0,0,0,0]}],[{"header":{"parameterUnit":"m.s-1","parameterCategory":2,"la1":30.2991,"la2":30.254,"lo1":-89.0895,"lo2":-89.0444,"dy":0.0017,"dx":0.0017,"nx":28,"ny":28,"refTime":"2025-08-24T21:00:00:Z","depth":"4","parameterNumber":2,"parameterNumberName":"U-component_of_CURRENTS"},"data":[0,0,0,0,0,0,0,0,0,0,0,0,0,0,0,0,0,0,0,0,0,0,0,0,0,0,0,0,0,0,0,0,0,0,0,0,0,0,0,0,0,0,0,0,0,0,0,0,0,0,0,0,0,0,0,0,0,0,0.078,0.078,0,0.0744,0.0743,0.0742,0.0763,0.0765,0.0766,0.0768,0.0824,0.0824,0.0824,0,0,0,0,0,0,0,0,0,0,0,0,0,0.0763,0.0763,0.078,0.078,0.078,0.0744,0.0743,0.0742,0.0763,0.0765,0.0767,0.0769,0.0824,0.0824,0.0824,0,0,0,0,0,0,0,0,0,0,0,0,0,0.0748,0.0763,0.078,0.079,0.0791,0.0744,0.0743,0.0742,0.0763,0.0765,0.0767,0.0769,0.0824,0.0824,0.0824,0.0779,0,0,0.0824,0.0824,0,0,0,0,0,0,0,0,0.0749,0.0748,0.0789,0.0789,0.0791,0.0765,0.0758,0.0761,0.0762,0.0768,0.0768,0.0771,0.0815,0.0815,0.0795,0.0781,0.0784,0.0824,0.0824,0.0824,0.0824,0,0,0,0,0,0,0,0.075,0.0749,0.076,0.0789,0.079,0.0761,0.0762,0.0757,0.0776,0.0767,0.077,0.0774,0.0815,0.0794,0.0796,0.0785,0.0824,0.0824,0.0824,0.0824,0.0824,0.0824,0,0,0,0,0,0,0.0768,0.075,0.0761,0.076,0.0781,0.0761,0.0761,0.0767,0.0774,0.0779,0.0772,0.0775,0.0793,0.0796,0.0799,0.0844,0.0824,0.0824,0.0824,0.0824,0.0824,0.0824,0,0,0,0,0,0,0.0768,0.0769,0.0763,0.0758,0.0756,0.076,0.0765,0.0765,0.0776,0.0778,0.0784,0.0789,0.0795,0.0799,0.0825,0.0843,0.0824,0.0824,0.0824,0.0824,0.0824,0.0872,0,0,0,0,0,0,0.0767,0.0769,0.0779,0.076,0.0758,0.0752,0.0763,0.0763,0.0776,0.078,0.0793,0.0799,0.0797,0.0825,0.0826,0.0843,0.0825,0.0824,0.0824,0.0824,0.0871,0.0874,0.0876,0,0,0,0,0,0.0767,0.0768,0.0779,0.0781,0.0771,0.0752,0.0747,0.0753,0.0775,0.0773,0.0795,0.08,0.0824,0.0825,0.0826,0.0844,0.0824,0.0824,0.0824,0.0869,0.0873,0.0876,0,0,0,0,0,0,0.0763,0.0771,0.0782,0.0787,0.0781,0.0759,0.0753,0.0765,0.0774,0.079,0.0801,0.0807,0.0841,0.0826,0.0827,0.084,0.0823,0.0823,0.0858,0.0861,0.0864,0.0869,0.0825,0,0,0,0,0,0.0768,0.0775,0.0774,0.0778,0.0775,0.0769,0.0766,0.0773,0.0778,0.0785,0.0802,0.0815,0.0829,0.0837,0.0842,0.0843,0.0836,0.0852,0.0855,0.0858,0.086,0.0859,0.0863,0.0823,0.0823,0.0823,0,0,0.0766,0.0773,0.0777,0.0778,0.0769,0.0768,0.0772,0.077,0.078,0.0789,0.0816,0.0834,0.0834,0.0848,0.0859,0.0844,0.0865,0.0857,0.086,0.0861,0.0859,0.0864,0.0867,0.0823,0.0823,0.0823,0,0,0.0756,0.0772,0.077,0.0772,0.0775,0.0772,0.0783,0.0781,0.079,0.0813,0.083,0.0858,0.0871,0.0873,0.0876,0.0891,0.0889,0.0896,0.0908,0.0908,0.0911,0.0914,0.0916,0.0919,0.0887,0.0887,0.0887,0,0.0756,0.0762,0.0764,0.0766,0.0772,0.0783,0.0784,0.0786,0.0802,0.0818,0.0834,0.0873,0.088,0.0896,0.0908,0.09,0.0902,0.0901,0.0913,0.0916,0.0918,0.0919,0.0922,0.0889,0.0889,0.0889,0.0888,0,0.0733,0.0756,0.0752,0.0767,0.077,0.0771,0.0783,0.0799,0.0829,0.0847,0.0887,0.0893,0.0919,0.0923,0.0926,0.0944,0.0942,0.0929,0.091,0.0926,0.0925,0.0927,0.0892,0.0892,0.0891,0.089,0,0,0.0688,0.0729,0.0734,0.0756,0.0776,0.0776,0.0796,0.0816,0.0843,0.0873,0.0903,0.0933,0.0957,0.096,0.0962,0.0959,0.0984,0.0956,0.0955,0.0968,0.0993,0.0955,0.0953,0.0981,0.0981,0.0982,0.0989,0,0.0671,0.0691,0.0713,0.0742,0.0753,0.0781,0.08,0.083,0.0859,0.0892,0.0914,0.0951,0.0962,0.0983,0.0986,0.0988,0.099,0.0984,0.0967,0.0966,0.0939,0.0954,0.0983,0.099,0.099,0.099,0.0991,0,0.064,0.0664,0.069,0.075,0.0755,0.0779,0.0819,0.0843,0.0889,0.0914,0.0955,0.0979,0.1003,0.0999,0.1014,0.1014,0.1014,0.1006,0.1006,0.0954,0.0931,0.0967,0.0994,0.0993,0.0993,0.0993,0.0993,0,0.0608,0.0654,0.0682,0.0698,0.0755,0.0779,0.0815,0.0861,0.0883,0.0939,0.0962,0.0998,0.1019,0.1023,0.1032,0.1029,0.1034,0.1019,0.0982,0.0979,0.0991,0.0988,0.1024,0.1024,0.1024,0.1024,0.1024,0,0.0586,0.0614,0.0678,0.0696,0.073,0.0779,0.082,0.0858,0.0905,0.0936,0.0983,0.0996,0.1029,0.1038,0.1036,0.102,0.1042,0.099,0.0979,0.1011,0.1009,0.0993,0.0989,0.1025,0.1025,0.1024,0.1024,0,0.0554,0.0598,0.0636,0.0701,0.0723,0.0754,0.0824,0.0846,0.0905,0.0938,0.096,0.1006,0.1028,0.1044,0.1048,0.1023,0.1008,0.0996,0.1039,0.103,0.0953,0.0951,0.095,0.0949,0.0948,0.0947,0.0946,0,0.0543,0.0559,0.0631,0.0652,0.0687,0.0741,0.0768,0.0838,0.0859,0.0934,0.0936,0.0986,0.1011,0.0983,0.1008,0.1002,0.0992,0.098,0.096,0.0956,0.0945,0.0946,0.0946,0.0944,0.0944,0.0944,0.0943,0,0.0512,0.0543,0.0575,0.0618,0.0655,0.0689,0.0741,0.0748,0.0825,0.0876,0.0899,0.092,0.0941,0.0953,0.0962,0.0953,0.0983,0.0968,0.097,0.0951,0.0949,0.0939,0.0941,0.094,0.094,0.094,0.0941,0,0.049,0.05,0.0544,0.0577,0.0618,0.0636,0.0667,0.0699,0.0732,0.0816,0.0822,0.0878,0.093,0.0928,0.093,0.0928,0.0913,0.0881,0.0887,0.0892,0.0871,0.0859,0.0815,0,0,0,0,0,0.0464,0.0473,0.0498,0.0534,0.0571,0.0597,0.0645,0.0674,0.074,0.0738,0.0783,0.0805,0.0832,0.0858,0.0844,0.09,0.0911,0.088,0.0875,0.0919,0.0923,0.0905,0,0,0,0,0,0,0.0445,0.0471,0.0482,0.0492,0.0508,0.054,0.0571,0.0611,0.0616,0.0688,0.0702,0.0764,0.0792,0.0833,0.083,0.0839,0.0822,0.0919,0.0917,0.0916,0.092,0.0924,0.0907,0,0,0,0,0]},{"header":{"parameterUnit":"m.s-1","parameterCategory":2,"la1":30.2991,"la2":30.254,"lo1":-89.0895,"lo2":-89.0444,"dy":0.0017,"dx":0.0017,"nx":28,"ny":28,"refTime":"2025-08-24T21:00:00:Z","depth":"4","parameterNumber":3,"parameterNumberName":"V-component_of_CURRENTS"},"data":[0,0,0,0,0,0,0,0,0,0,0,0,0,0,0,0,0,0,0,0,0,0,0,0,0,0,0,0,0,0,0,0,0,0,0,0,0,0,0,0,0,0,0,0,0,0,0,0,0,0,0,0,0,0,0,0,0,0,0.001,0.001,0,0.0049,0.005,0.005,0.0041,0.004,0.0039,0.0037,0.0009,0.0009,0.001,0,0,0,0,0,0,0,0,0,0,0,0,0,0.0017,0.0017,0.001,0.001,0.001,0.0049,0.005,0.0051,0.0041,0.004,0.0038,0.0037,0.0009,0.0009,0.001,0,0,0,0,0,0,0,0,0,0,0,0,0,0.0036,0.0017,0.001,0.0006,0.0005,0.0048,0.005,0.0051,0.0042,0.004,0.0038,0.0036,0.0009,0.0009,0.001,0.0053,0,0,0.0012,0.0012,0,0,0,0,0,0,0,0,0.0035,0.0037,0.0007,0.0006,0.0006,0.0033,0.0041,0.0046,0.0042,0.0034,0.0037,0.0035,0.0008,0.0009,0.003,0.0051,0.005,0.0012,0.0012,0.0013,0.0013,0,0,0,0,0,0,0,0.0033,0.0035,0.0032,0.0006,0.0006,0.0031,0.0032,0.0043,0.0035,0.0035,0.0033,0.0028,0.0008,0.0029,0.0029,0.005,0.0012,0.0013,0.0013,0.0013,-0.0023,-0.0025,0,0,0,0,0,0,0.0014,0.0034,0.003,0.0032,0.0009,0.0032,0.0033,0.0031,0.0036,0.0034,0.003,0.0027,0.0029,0.0028,0.0028,-0.0013,0.0013,0.0013,0.0014,-0.0022,-0.0024,-0.0025,0,0,0,0,0,0,0.0014,0.0014,0.0029,0.0029,0.0032,0.0033,0.0032,0.0033,0.0043,0.0032,0.0029,0.0036,0.0028,0.0027,0.0014,-0.0012,0.0014,0.0014,-0.002,-0.0022,-0.0024,-0.0037,0,0,0,0,0,0,0.0015,0.0014,0.0015,0.0028,0.0031,0.0053,0.0033,0.0035,0.004,0.0038,0.0037,0.0033,0.0026,0.0013,0.0014,-0.001,0.0015,-0.0019,-0.0021,-0.0024,-0.0035,-0.0039,-0.0043,0,0,0,0,0,0.0015,0.0021,0.0015,0.0014,0.0029,0.0053,0.0059,0.0057,0.0042,0.0058,0.0036,0.0032,-0.0004,0.0013,0.0015,-0.001,-0.0017,-0.002,-0.0023,-0.0033,-0.0038,-0.0043,0,0,0,0,0,0,0.0025,0.002,0.0014,0.0017,0.0032,0.0049,0.0062,0.0059,0.0061,0.0051,0.0035,0.0031,0.0001,0.0002,0.0021,-0.0033,-0.0018,-0.0021,-0.0027,-0.0032,-0.0036,-0.0029,0.0015,0,0,0,0,0,0.0026,0.0029,0.0032,0.0038,0.0045,0.0055,0.0065,0.0065,0.0063,0.0063,0.0054,0.0029,-0.0004,-0.0012,-0.0029,-0.0034,-0.0032,-0.0058,-0.0062,-0.0065,-0.0061,-0.0077,-0.0082,-0.0035,-0.0035,-0.0035,0,0,0.003,0.0028,0.0029,0.004,0.0053,0.0059,0.0058,0.0076,0.0065,0.0059,0.0045,0.0022,-0.0011,-0.0038,-0.0051,-0.004,-0.0079,-0.0069,-0.0071,-0.0066,-0.0081,-0.0085,-0.0089,-0.0037,-0.0037,-0.0037,0,0,0.0047,0.0041,0.0053,0.006,0.0072,0.0072,0.0072,0.0087,0.0078,0.0069,0.0036,0.0004,-0.0018,-0.0053,-0.0077,-0.0107,-0.0103,-0.0124,-0.0131,-0.0147,-0.015,-0.0153,-0.0156,-0.0159,-0.0122,-0.0122,-0.0122,0,0.0052,0.0056,0.0064,0.0074,0.0067,0.007,0.0074,0.0073,0.0075,0.0061,0.0055,-0.0009,-0.0031,-0.0089,-0.0113,-0.0116,-0.0118,-0.0106,-0.015,-0.0152,-0.0155,-0.0158,-0.0161,-0.0123,-0.0123,-0.0123,-0.0123,0,0.008,0.0073,0.0082,0.008,0.0083,0.0089,0.0075,0.0074,0.0054,0.0042,-0.0003,-0.003,-0.0069,-0.0095,-0.0115,-0.016,-0.0153,-0.0154,-0.013,-0.016,-0.0162,-0.0165,-0.0125,-0.0124,-0.0124,-0.0124,0,0,0.0106,0.01,0.01,0.0087,0.0079,0.0084,0.0061,0.0042,0.0024,0.0007,-0.0021,-0.0089,-0.0095,-0.0123,-0.015,-0.017,-0.0197,-0.017,-0.017,-0.0161,-0.0223,-0.0215,-0.0217,-0.0202,-0.0203,-0.0203,-0.0215,0,0.0121,0.0123,0.0116,0.01,0.0091,0.0073,0.0053,0.0033,0.0011,-0.001,-0.0054,-0.0089,-0.0111,-0.0129,-0.0155,-0.0188,-0.0206,-0.0193,-0.0206,-0.0206,-0.0185,-0.0221,-0.0206,-0.0218,-0.0218,-0.0219,-0.0219,0,0.0142,0.0135,0.0124,0.0088,0.0086,0.0077,0.004,0.0025,-0.0009,-0.0024,-0.0059,-0.0084,-0.0132,-0.0136,-0.0194,-0.0184,-0.0205,-0.0224,-0.0225,-0.0213,-0.0204,-0.0184,-0.0224,-0.0224,-0.0224,-0.0223,-0.0223,0,0.0143,0.013,0.0113,0.0103,0.0077,0.0065,0.005,0.0021,0.0011,-0.0027,-0.0031,-0.0089,-0.0108,-0.0149,-0.0193,-0.0194,-0.0241,-0.0243,-0.0255,-0.0254,-0.0248,-0.0244,-0.0277,-0.0277,-0.0277,-0.0277,-0.0277,0,0.0139,0.0124,0.0113,0.0102,0.0089,0.0069,0.0055,0.0036,0.0018,0.0013,-0.0032,-0.0043,-0.0111,-0.0146,-0.0187,-0.0229,-0.0235,-0.026,-0.0261,-0.0254,-0.0251,-0.0249,-0.0246,-0.0278,-0.0277,-0.0277,-0.0277,0,0.013,0.0122,0.0106,0.0089,0.0087,0.0078,0.0072,0.0067,0.0048,0.0044,0.0036,-0.0011,-0.0059,-0.012,-0.0184,-0.0214,-0.0259,-0.027,-0.0251,-0.025,-0.026,-0.0258,-0.0285,-0.0285,-0.0285,-0.0285,-0.0285,0,0.0122,0.0114,0.0108,0.0111,0.0104,0.0097,0.01,0.0084,0.0086,0.0068,0.0071,0.0023,-0.0012,-0.0089,-0.0163,-0.0241,-0.0252,-0.027,-0.028,-0.0266,-0.0264,-0.0261,-0.0259,-0.0284,-0.0284,-0.0284,-0.0284,0,0.0108,0.0112,0.0105,0.0118,0.0123,0.0129,0.0132,0.0141,0.0131,0.0117,0.0108,0.0058,0.0005,-0.0075,-0.0139,-0.0195,-0.026,-0.027,-0.0271,-0.028,-0.0265,-0.0263,-0.0261,-0.0284,-0.0284,-0.0284,-0.0284,0,0.0105,0.0104,0.011,0.0121,0.0137,0.0156,0.0156,0.0164,0.0164,0.0152,0.015,0.0086,0.0042,-0.0051,-0.0108,-0.0168,-0.0185,-0.0199,-0.0204,-0.0205,-0.0186,-0.0156,-0.0146,0,0,0,0,0,0.0099,0.0103,0.0114,0.0128,0.0151,0.0159,0.0177,0.0178,0.0179,0.0184,0.0169,0.0122,0.003,-0.0018,-0.0075,-0.0118,-0.0204,-0.0187,-0.0225,-0.0283,-0.0283,-0.0274,0,0,0,0,0,0,0.0093,0.0101,0.011,0.0139,0.0155,0.0177,0.019,0.0192,0.0193,0.0187,0.0139,0.0111,0.0017,0.0065,-0.0075,-0.0096,-0.0126,-0.0236,-0.0237,-0.0283,-0.0283,-0.0283,-0.0274,0,0,0,0,0]}]]